Wind_Speed
38 42 46 41 38 38 40 40 39 39 39 40 40 39 38 38 38 39 41 41 44 44 47 49 50 51 52 51 51 52 52 47 45 41 35 30 31 28 28 23 19 16 14
27 33 39 41 40 40 40 39 38 38 37 37 37 36 37 37 37 37 38 38 40 40 41 45 47 48 51 54 53 55 57 53 48 44 35 29 30 29 25 22 18 15 14
24 29 32 35 36 37 37 36 35 35 34 35 35 36 36 35 35 34 35 35 38 38 39 42 40 43 43 45 56 49 54 51 44 32 25 21 30 27 27 25 18 15 13
17 22 26 28 30 32 33 34 34 33 33 33 33 32 33 32 32 33 33 36 38 38 42 41 42 45 41 42 42 45 49 49 41 33 25 24 27 29 27 24 21 16 12
10 13 16 19 23 26 29 31 32 32 31 30 30 30 30 29 32 31 36 32 40 37 32 38 36 41 38 36 42 38 42 48 39 28 22 28 26 27 31 24 22 12 8
16 15 16 17 18 19 20 21 23 25 27 27 27 29 28 28 29 25 28 29 27 34 32 32 32 35 33 32 37 36 39 35 31 28 29 27 26 33 28 25 21 10 14
20 19 18 18 17 16 16 16 17 17 17 17 19 22 24 25 28 30 31 32 31 30 29 29 29 28 27 25 28 30 26 28 29 21 32 28 25 29 25 23 17 13 16
20 19 18 17 16 15 14 13 12 13 14 17 20 23 25 27 29 28 27 29 30 31 30 29 29 26 26 23 23 22 23 25 27 30 26 22 24 19 21 19 16 16 16
16 15 14 13 13 12 12 12 11 11 12 14 15 16 17 18 21 23 22 23 28 28 28 28 26 26 25 26 23 22 22 23 22 21 23 26 25 21 21 18 18 14 17
12 12 12 12 12 11 10 10 10 9 9 8 8 9 9 11 12 13 14 15 17 18 20 18 20 21 20 19 17 18 21 21 22 22 24 25 25 24 20 18 15 17 18
8 7 6 6 6 5 6 7 7 7 6 7 7 7 8 9 11 11 12 14 15 15 14 13 14 14 13 13 13 14 17 17 20 22 21 24 24 24 22 19 17 19 21
3 2 1 0 1 2 3 5 6 6 5 6 6 6 7 9 9 10 11 12 11 11 10 10 9 8 9 9 13 14 16 18 17 19 23 22 25 26 21 18 20 22 27
4 3 2 2 3 4 4 5 6 7 7 7 7 7 7 8 8 9 9 9 8 7 8 7 6 6 8 12 14 15 15 15 17 20 23 26 29 23 20 21 25 28 28
5 4 3 2 2 2 3 4 5 5 6 6 6 7 7 7 7 8 9 9 9 9 9 7 7 8 9 11 13 15 14 15 16 18 22 25 26 25 24 27 29 29 30
5 3 2 3 4 4 4 4 4 5 5 5 5 6 6 6 7 8 8 8 7 6 5 6 7 9 10 11 12 14 16 19 21 22 25 28 27 29 31 30 30 30 29
6 5 4 4 3 4 4 5 5 4 4 4 5 5 7 8 8 8 7 6 5 5 7 7 7 7 9 11 15 17 17 21 22 23 24 26 29 30 31 33 31 30 31
7 6 6 6 6 6 6 7 7 6 5 5 5 6 6 7 8 8 7 6 6 6 5 7 8 9 10 12 14 17 19 20 21 22 24 25 30 32 31 30 32 32 32
7 5 6 6 6 7 8 8 8 7 7 6 6 6 6 5 5 4 4 4 5 7 6 7 7 8 9 12 13 14 16 17 18 18 22 27 29 30 31 30 30 30 30
7 6 6 6 6 6 6 7 7 7 8 8 8 8 7 8 7 5 4 6 6 7 7 8 10 11 11 12 13 14 15 16 19 23 25 28 29 29 29 28 27 28 28
7 5 5 5 5 6 6 6 6 6 6 6 6 6 7 8 8 9 9 9 10 11 13 14 14 16 17 17 18 19 20 22 25 26 27 29 29 27 27 26 25 25 26
7 6 4 5 4 4 5 4 4 4 6 7 8 9 11 11 11 12 14 14 15 16 17 19 20 20 22 23 24 25 26 27 27 28 28 27 27 27 25 25 26 25 24
5 4 3 3 5 6 8 9 10 11 12 13 14 15 17 18 18 18 19 20 21 22 23 24 25 27 27 28 28 29 29 29 29 29 28 27 26 26 25 25 24 23 23
3 4 5 7 9 11 13 14 15 16 17 18 19 20 20 21 22 22 24 24 24 25 26 27 27 28 29 30 31 31 31 30 30 29 28 27 26 25 24 24 23 23 22
8 10 12 13 15 16 17 18 19 20 21 21 22 23 24 24 24 24 25 26 27 27 27 28 29 29 29 29 29 28 28 28 28 27 27 27 26 25 24 24 23 22 21
15 16 17 18 18 19 20 21 22 22 23 24 24 25 25 26 27 27 27 27 28 28 28 29 29 29 30 30 29 27 26 26 26 25 25 26 25 24 23 22 22 21 20
19 20 21 22 22 23 24 25 25 26 27 27 28 28 29 29 29 28 28 29 29 28 28 28 27 27 27 27 27 27 25 24 23 23 24 24 23 22 22 22 22 21 20
Wind_Direction
246 247 245 249 254 257 257 260 263 266 269 271 273 273 273 273 273 272 270 270 269 268 267 266 264 261 263 261 262 260 258 254 255 256 258 244 239 235 230 232 239 246 258
247 249 249 252 255 258 261 264 267 270 272 273 275 276 275 275 276 275 276 275 274 275 278 272 273 272 269 269 264 264 258 258 251 246 244 247 235 228 226 230 235 243 260
244 247 249 253 257 260 264 266 268 270 272 271 273 272 275 275 276 278 277 277 276 271 269 273 277 276 274 279 267 273 260 251 241 243 253 247 236 227 229 233 233 233 261
246 247 248 251 253 256 260 263 267 267 265 267 269 272 274 275 275 274 277 275 274 277 275 275 278 276 275 276 277 284 275 256 249 238 232 240 235 234 230 233 235 231 262
251 251 251 252 253 254 256 258 260 260 260 262 265 267 269 271 274 277 273 281 280 274 278 286 293 283 283 285 279 271 278 262 245 233 225 223 232 240 229 234 228 237 271
264 264 261 259 259 260 261 260 261 261 261 260 259 259 264 265 265 270 274 269 274 272 281 279 284 283 282 285 289 286 279 264 245 224 221 216 244 240 235 230 219 236 282
267 267 265 262 262 262 263 264 264 263 263 261 259 259 258 261 266 266 266 271 275 275 278 281 283 286 290 293 293 291 275 254 237 231 219 238 235 234 240 222 225 243 263
265 263 262 260 259 257 256 258 259 260 259 257 258 259 262 266 268 270 272 273 274 274 276 278 280 284 290 295 292 281 263 245 234 218 230 233 238 232 226 218 238 249 264
265 259 255 252 252 252 253 256 262 265 267 271 272 272 272 274 270 269 274 276 278 281 284 285 289 289 288 289 282 270 253 246 228 212 238 229 238 217 207 223 240 258 292
259 255 250 245 242 243 247 252 258 258 269 283 289 298 307 303 300 302 300 295 293 291 293 297 289 294 296 293 279 260 247 235 218 241 238 231 228 212 217 229 242 277 297
240 236 236 241 251 263 272 281 285 289 288 293 296 293 296 302 300 298 296 292 300 305 296 304 314 316 314 299 270 259 250 245 238 232 226 234 222 210 226 239 263 285 295
157 164 158 20 323 315 316 314 315 311 303 305 310 317 313 309 309 310 307 312 321 328 328 317 307 308 298 278 264 254 242 236 232 247 246 232 219 221 238 260 279 290 292
124 105 64 26 0 345 333 318 305 301 301 306 311 316 314 312 310 309 308 314 323 328 317 312 310 290 265 257 250 237 233 246 251 245 241 232 223 230 246 270 289 290 290
143 131 110 78 26 5 356 344 335 328 318 307 300 292 286 284 289 298 302 305 308 304 307 307 285 261 246 245 251 251 247 254 260 261 257 243 234 246 261 275 288 295 285
136 121 101 59 36 25 25 20 13 6 359 339 332 319 316 306 300 295 290 286 288 296 298 304 290 284 277 271 258 262 272 271 266 256 250 245 245 256 266 284 291 287 279
126 98 75 67 73 89 85 73 54 39 18 359 358 345 337 330 321 310 297 292 296 302 324 320 309 296 291 284 279 274 275 279 276 268 257 249 253 266 280 286 289 283 278
96 88 89 92 93 81 73 68 65 66 47 26 11 360 348 340 334 337 330 318 318 319 308 300 291 290 290 291 286 282 282 285 284 277 268 267 274 280 288 292 289 284 280
105 115 123 120 107 94 82 72 65 61 55 43 32 23 18 12 359 348 322 317 307 311 310 304 296 288 289 292 291 288 283 280 276 274 274 277 284 288 287 286 284 281 278
126 132 122 104 89 74 65 56 47 41 36 34 27 23 18 6 7 356 326 311 298 293 290 291 292 289 284 281 279 278 279 280 281 282 284 286 286 285 285 283 282 280 279
137 119 92 73 56 48 45 42 37 34 33 28 20 7 358 349 342 333 327 321 312 304 297 290 282 281 280 280 281 281 282 284 285 284 284 284 284 283 281 281 280 279 278
119 101 81 65 49 38 25 14 4 351 337 330 326 321 320 317 314 311 310 310 305 301 295 292 288 284 283 284 286 288 290 290 289 287 287 284 282 279 276 276 277 277 277
101 81 50 15 357 345 337 330 326 322 319 317 314 310 308 306 305 301 298 296 294 291 289 289 288 287 288 287 287 287 287 288 288 287 284 282 279 277 276 276 275 275 275
8 342 329 321 318 315 312 311 309 308 307 306 305 303 301 300 299 298 298 296 293 292 291 290 289 289 290 290 289 289 288 288 286 285 283 281 279 278 275 273 273 273 274
317 313 309 307 306 304 303 303 302 302 302 302 301 300 299 299 297 296 295 294 294 292 292 291 290 289 288 287 287 288 288 288 286 284 283 280 277 276 275 274 274 272 270
308 306 306 305 304 303 302 301 301 300 299 298 297 297 297 296 296 295 294 294 294 294 292 291 290 289 288 287 287 287 285 284 283 281 279 276 275 273 272 272 268 267 266
309 308 307 306 306 304 304 303 302 301 300 299 298 297 296 295 293 293 293 291 290 289 289 288 287 287 286 287 288 288 287 285 284 280 276 274 274 273 270 267 265 265 264
Height
1479 1484 1488 1492 1494 1496 1497 1499 1500 1503 1505 1506 1509 1510 1512 1514 1516 1516 1516 1518 1517 1517 1517 1517 1517 1519 1517 1517 1516 1515 1512 1509 1510 1506 1510 1512 1516 1519 1520 1525 1528 1530 1530
1474 1477 1482 1486 1488 1489 1490 1492 1494 1495 1498 1499 1502 1502 1503 1504 1506 1507 1507 1508 1509 1509 1509 1509 1508 1508 1507 1507 1502 1503 1500 1501 1498 1497 1500 1511 1512 1514 1520 1520 1521 1525 1526
1469 1472 1476 1478 1480 1481 1482 1484 1486 1488 1489 1491 1493 1493 1495 1496 1498 1498 1499 1499 1499 1499 1499 1498 1498 1497 1496 1495 1488 1492 1491 1490 1483 1495 1506 1500 1513 1514 1514 1519 1518 1517 1520
1466 1469 1470 1472 1473 1474 1476 1476 1477 1479 1481 1482 1484 1485 1487 1488 1489 1489 1489 1490 1490 1489 1489 1488 1488 1487 1488 1487 1486 1486 1486 1485 1489 1483 1489 1499 1504 1510 1509 1512 1515 1513 1513
1465 1465 1466 1466 1466 1466 1467 1468 1469 1471 1473 1474 1476 1478 1479 1479 1481 1481 1481 1481 1480 1479 1480 1481 1479 1479 1478 1478 1477 1478 1478 1477 1478 1482 1485 1490 1501 1503 1503 1506 1508 1513 1510
1462 1462 1462 1461 1461 1460 1460 1461 1463 1464 1465 1467 1469 1471 1472 1473 1473 1472 1473 1474 1473 1473 1472 1472 1471 1471 1471 1470 1469 1471 1471 1472 1473 1475 1484 1482 1492 1496 1498 1499 1505 1505 1507
1456 1456 1455 1455 1455 1455 1456 1456 1457 1458 1459 1461 1463 1465 1466 1466 1466 1466 1466 1465 1465 1465 1464 1464 1464 1464 1463 1463 1462 1462 1462 1465 1468 1472 1476 1481 1483 1490 1494 1496 1500 1500 1500
1451 1451 1450 1450 1451 1451 1452 1452 1453 1454 1455 1457 1458 1459 1459 1458 1459 1459 1460 1460 1459 1459 1459 1458 1458 1458 1456 1457 1457 1457 1459 1459 1463 1466 1471 1478 1481 1483 1487 1491 1496 1495 1494
1446 1446 1446 1446 1446 1447 1448 1449 1450 1451 1452 1453 1453 1454 1454 1453 1452 1452 1454 1454 1455 1454 1453 1453 1453 1452 1452 1452 1451 1452 1454 1459 1460 1465 1469 1471 1478 1481 1484 1488 1490 1490 1489
1443 1444 1444 1443 1444 1444 1445 1446 1446 1448 1448 1449 1449 1450 1450 1451 1451 1451 1452 1451 1451 1450 1449 1449 1450 1448 1447 1447 1449 1448 1449 1454 1458 1460 1463 1465 1471 1475 1479 1481 1482 1483 1481
1443 1443 1443 1443 1442 1442 1443 1444 1444 1445 1447 1447 1447 1448 1448 1448 1449 1448 1449 1447 1447 1445 1445 1445 1446 1445 1445 1447 1449 1449 1452 1454 1455 1459 1462 1463 1466 1472 1475 1477 1476 1477 1476
1443 1443 1442 1442 1442 1441 1441 1442 1442 1443 1444 1445 1445 1445 1444 1445 1446 1446 1446 1445 1443 1442 1442 1441 1440 1441 1442 1443 1449 1453 1453 1454 1456 1460 1462 1463 1467 1470 1472 1472 1471 1470 1469
1443 1443 1443 1442 1442 1441 1440 1440 1440 1440 1440 1440 1441 1441 1442 1442 1442 1442 1442 1441 1440 1441 1440 1439 1439 1439 1440 1442 1443 1447 1448 1450 1451 1453 1455 1457 1459 1463 1465 1464 1465 1464 1462
1442 1442 1442 1441 1441 1440 1439 1438 1437 1437 1438 1438 1438 1438 1438 1438 1438 1438 1437 1437 1438 1438 1438 1437 1438 1438 1438 1440 1443 1445 1446 1447 1448 1450 1453 1455 1459 1460 1459 1459 1458 1457 1455
1439 1440 1440 1438 1438 1438 1438 1438 1436 1436 1436 1436 1435 1435 1435 1436 1435 1435 1434 1434 1434 1435 1434 1435 1437 1438 1438 1440 1441 1443 1444 1444 1444 1445 1448 1452 1454 1454 1454 1453 1452 1451 1449
1438 1438 1438 1437 1438 1437 1436 1435 1435 1434 1435 1435 1433 1432 1432 1432 1432 1432 1432 1432 1433 1433 1434 1434 1435 1435 1437 1438 1439 1440 1441 1442 1441 1443 1444 1445 1447 1447 1447 1446 1445 1443 1442
1434 1435 1438 1439 1440 1440 1437 1435 1434 1433 1434 1433 1432 1431 1431 1431 1431 1430 1431 1430 1431 1432 1432 1432 1432 1433 1432 1434 1434 1435 1436 1437 1438 1438 1439 1440 1440 1439 1437 1435 1436 1436 1435
1435 1439 1442 1441 1439 1437 1436 1435 1435 1435 1433 1432 1432 1431 1429 1429 1430 1430 1430 1430 1431 1430 1430 1429 1429 1429 1428 1429 1429 1430 1430 1431 1430 1431 1433 1432 1431 1429 1429 1428 1427 1427 1426
1439 1443 1443 1440 1437 1434 1433 1433 1432 1433 1433 1433 1433 1433 1431 1431 1429 1427 1428 1429 1428 1429 1428 1427 1427 1426 1425 1425 1424 1424 1423 1423 1424 1424 1424 1424 1423 1422 1421 1420 1418 1418 1417
1442 1441 1439 1438 1436 1434 1432 1432 1432 1432 1432 1432 1432 1432 1432 1432 1431 1430 1428 1426 1426 1425 1425 1424 1423 1422 1421 1420 1420 1420 1418 1418 1416 1415 1414 1415 1414 1411 1411 1411 1412 1409 1410
1438 1436 1436 1436 1435 1434 1433 1433 1432 1432 1433 1433 1431 1431 1431 1428 1426 1426 1426 1424 1424 1422 1421 1421 1421 1419 1418 1416 1414 1412 1411 1411 1409 1408 1406 1404 1405 1404 1403 1402 1403 1402 1401
1435 1434 1433 1433 1433 1434 1433 1433 1433 1433 1432 1431 1430 1429 1427 1426 1425 1424 1422 1421 1420 1418 1415 1414 1413 1413 1409 1409 1408 1406 1404 1403 1402 1399 1398 1397 1397 1397 1396 1396 1396 1393 1393
1433 1433 1432 1432 1431 1431 1431 1431 1431 1430 1429 1427 1427 1427 1425 1422 1420 1418 1419 1417 1414 1413 1411 1408 1406 1405 1402 1401 1399 1397 1395 1394 1393 1392 1390 1390 1390 1390 1389 1388 1387 1388 1388
1431 1431 1430 1430 1429 1428 1428 1427 1426 1424 1423 1422 1421 1420 1419 1417 1415 1412 1411 1410 1408 1406 1403 1401 1399 1396 1395 1393 1390 1388 1387 1385 1384 1384 1383 1382 1381 1381 1382 1381 1382 1382 1379
1428 1428 1427 1427 1425 1423 1423 1421 1420 1418 1417 1415 1414 1413 1411 1410 1408 1405 1403 1401 1399 1397 1395 1393 1390 1388 1385 1384 1381 1379 1377 1376 1375 1375 1373 1373 1371 1373 1374 1373 1374 1374 1374
1425 1423 1423 1421 1420 1418 1416 1415 1414 1412 1410 1409 1407 1405 1402 1401 1400 1396 1394 1393 1391 1388 1386 1384 1381 1379 1376 1374 1372 1370 1368 1368 1368 1366 1365 1365 1364 1365 1365 1365 1367 1367 1368